{"data":{"norad_id":62043,"intl_designator":"2024-216M","name":"STARLINK-32491","alt_names":[],"object_type":"PAYLOAD","status":"ACTIVE","operator":null,"country":"US","launch_date":"2024-11-21","launch_site_code":"AFETR","launch_vehicle":null,"mission":null,"orbit_class":"UNKNOWN","rcs_meters":null,"size_class":null,"mass_kg":null,"dimensions":null,"purposes":["comms"],"wikipedia_slug":null,"has_3d_model":false,"image_url":null,"decayed_at":null,"tle_current":{"epoch":"2026-09-21T14:48:22.300128Z","epoch_age_seconds":89056,"freshness":"FRESH","line1":"1 62043U 24216M   26264.61692477  .00014874  00000+0  54880-3 0  9993","line2":"2 62043  42.9984 237.3111 0001391 285.5661  74.5037 15.27588443103757","mean_motion":15.27588443,"eccentricity":0.0001391,"inclination_deg":42.9984,"raan_deg":237.3111,"arg_perigee_deg":285.5661,"mean_anomaly_deg":74.5037,"bstar":0.0005488,"rev_number":10375,"period_min":94.266227700179,"perigee_km":482.06942730741,"apogee_km":483.97820224608,"semimajor_km":6861.1608147767,"source":"CELESTRAK","updated_at":"2026-09-22T09:00:49.488450Z"}}}